Regional Weather Roundup
Issued by NWS Wakefield, VA

Home | Current Version | Previous Version | Graphics & Text | Print | Product List | Glossary On
Versions: 1 2 3 4 5 6 7 8 9 10 11 12 13 14 15 16 17 18 19 20 21 22 23 24 25 26 27 28 29 30 31 32 33 34 35 36 37 38 39 40 41 42 43 44 45 46 47 48 49 50
000
ASUS41 KAKQ 221414
RWRAKQ

REGIONAL WEATHER ROUNDUP
NATIONAL WEATHER SERVICE WAKEFIELD VA
1000 AM EDT FRI MAY 22 2015

Note: "fair" indicates few or no clouds below 12,000 feet with no
significant weather and/or obstructions to visibility. * = Denotes
station may not report precipitation (e.g., rain,snow,etc.),
thunder or fog.

VAZ042-051-052>054-056-221500-
NORTHERN VIRGINIA

CITY           SKY/WX    TMP DP  RH WIND       PRES   REMARKS
WASH NATIONAL  SUNNY     65  45  48 NW10      30.10R
DULLES         SUNNY     61  42  49 NW14      30.11R
FORT BELVOIR   SUNNY     63  44  50 NW13      30.11R
QUANTICO       SUNNY     63  45  51 NW9       30.13R
FREDERICKSBRG* SUNNY     64  46  52 NW9       30.12S
STAFFORD*      SUNNY     62  45  54 W7        30.16R
WARRENTON      SUNNY     65  49  55 NW7       30.12S
CULPEPER*      SUNNY     62  44  50 NW6       30.13S
MANASSAS*      SUNNY     63  45  51 NW14      30.11S
LEESBURG*      SUNNY     63  46  55 W14       30.12R
WINCHESTER     SUNNY     63  37  39 W13       30.12R
FRONT ROYAL*   FAIR      59  45  58 SW5       30.12R
LURAY*         FAIR      61  45  55 SW7       30.16R
$$

VAZ048-049-060>072-079>083-221500-
CENTRAL AND SOUTH CENTRAL VIRGINIA

CITY           SKY/WX    TMP DP  RH WIND       PRES   REMARKS
RICHMOND       SUNNY     63  43  48 W9        30.14R
CHESTERFIELD*  NOT AVBL
PETERSBURG*    SUNNY     64  42  45 NW9       30.16R
HANOVER        SUNNY     62  47  57 W10       30.15R
TAPPAHANNOCK*  SUNNY     63  41  44 NW6       30.12S
QUINTON*       FAIR      60  45  57 NW10G21   30.13S
CHARLOTTSVILLE SUNNY     62  40  44 W12       30.14R
GORDONSVILLE*  FAIR      61  42  50 SW6       30.13S
ORANGE*        SUNNY     63  46  55 CALM      30.14S
LOUISA*        SUNNY     63  46  55 W7        30.13S
BUMPASS*       FAIR      60  46  60 NW5       30.14R
FARMVILLE*     SUNNY     62  46  56 W5        30.15S
CREWE*         FAIR      61  42  48 W9        30.16R
FORT PICKETT*  FAIR      61  43  52 NW10G17   30.16R
CHASE CITY*    FAIR      62  47  57 NW6       30.17S
CLARKSVILLE*   FAIR      61  45  55 N6        30.17S
SOUTH HILL*    SUNNY     61  45  56 NW5       30.22R
LAWRENCEVILLE* FAIR      61  45  55 N8        30.16R
EMPORIA*       SUNNY     61  45  55 NW7       30.17R
$$

VAZ088>098-221500-
SOUTHEAST VIRGINIA

CITY           SKY/WX    TMP DP  RH WIND       PRES   REMARKS
NORFOLK        SUNNY     63  43  48 N12G21    30.11R
VIRGINIA BEACH SUNNY     65  49  56 NW14      30.11R
NORFOLK NAVAL  SUNNY     69  43  38 N14       30.13R
WEST POINT*    SUNNY     64  43  46 NW6       30.15R
SALUDA*        FAIR      60  47  61 NW12G17   30.12R
NEWPORT NEWS   SUNNY     66  46  48 N14G22    30.12R
LANGLEY AFB    SUNNY     63  45  52 N9G21     30.11R
FORT EUSTIS    SUNNY     63  47  56 NW9       30.11R
WILLIAMSBURG*  SUNNY     63  50  63 N9        30.14R
HR EXEC AP*    FAIR      63  46  55 N6        30.14S
FRANKLIN*      SUNNY     62  45  53 NW8       30.15R
WAKEFIELD      SUNNY     64  47  53 VRB6      30.14R
$$

VAZ020-022-025-037-045-221500-
WEST CENTRAL AND SOUTHWEST VIRGINIA

CITY           SKY/WX    TMP DP  RH WIND       PRES   REMARKS
STAUNTON*      SUNNY     60  41  49 NW3       30.18S
WAYNESBORO*    FAIR      57  39  51 W8        30.16S
HOT SPRINGS VA MOSUNNY   47  38  73 W17G23    30.17R
LYNCHBURG      SUNNY     60  38  43 VRB7      30.19R
DANVILLE       SUNNY     64  43  46 N13G21    30.19R
SOUTH BOSTON*  FAIR      62  43  49 N7        30.19R
MARTINSVILLE   SUNNY     62  42  47 N7        30.23R
ROANOKE        SUNNY     59  37  44 NW15G21   30.23R
BLACKSBURG     SUNNY     52  40  62 NW7       30.26R
DUBLIN*        SUNNY     55  40  55 NW8       30.26R
MARION*        PTSUNNY   53  40  62 NW12      30.29R
HILLSVILLE*    SUNNY     49  37  61 N16       30.24R
RICHLANDS*     CLOUDY    48  27  45 NW3       30.28S
WISE*          MOSUNNY   52  43  71 N7        30.30R
ABINGDON*      MOSUNNY   55  42  62 CALM      30.28S
$$

MDZ021>025-VAZ099-100-221500-
SOUTHERN MARYLAND AND THE DELMARVA PENINSULA

CITY           SKY/WX    TMP DP  RH WIND       PRES   REMARKS
PATUXENT RIVER SUNNY     62  45  53 NW14      30.10R
BAY BRIDGE APT   N/A    N/A N/A N/A W7        30.08R
LEONARDTOWN    SUNNY     61  45  55 W8        30.12R
DOVER          SUNNY     61  49  64 W9G20     30.01R
GEORGETOWN     SUNNY     61  46  57 NW7G20    30.06R
EASTON         NOT AVBL
CAMBRIDGE      SUNNY     63  45  51 NW9       30.08R
SALISBURY      SUNNY     63  48  58 NW12      30.07R
OCEAN CITY     SUNNY     62  48  60 NW13      30.05R
WALLOPS ISLAND SUNNY     63  49  60 NW10      30.08R
ACCOMACK*      SUNNY     61  46  59 NW12G18   30.09S
$$

NCZ012>017-030>032-221500-
NORTH CENTRAL AND EASTERN NORTH CAROLINA

CITY           SKY/WX    TMP DP  RH WIND       PRES   REMARKS
ROANOKE RAPIDS FAIR      61  43  51 NE7       30.16S
RALEIGH        MOSUNNY   62  45  53 VRB5      30.19R
ELIZABETH CITY MOSUNNY   63  50  62 N10       30.13R
AHOSKIE*       SUNNY     62  44  52 N8        30.16R
EDENTON*       SUNNY     63  48  59 N15       30.14R
CURRITUCK*     NOT AVBL
KILL DEVIL HLS SUNNY     62  50  66 N8        30.11R
MANTEO         MOSUNNY   62  51  67 N13       30.12S
CAPE HATTERAS  PTSUNNY   61  51  70 VRB6      30.13R
TARBORO*       FAIR      64  46  51 N7        30.17S
GOLDSBORO      MOSUNNY   64  48  54 N7G16     30.15R
WASHINGTON     MOSUNNY  N/A N/A N/A N10       30.16R
GREENVILLE     MOSUNNY   63  50  63 NE9       30.17S
NEW BERN       MOSUNNY   65  51  60 N12       30.17R
WILMINGTON     CLOUDY    65  54  67 NE15      30.15R
$$

VAZ048-221500-
ELSEWHERE

CITY           SKY/WX    TMP DP  RH WIND       PRES   REMARKS
HARRISBURG PA  SUNNY     64  43  46 W14       30.03R
BALTIMORE      SUNNY     64  44  48 NW12      30.06R
ANNAPOLIS      SUNNY     61  45  55 W9        30.07R
ANDREWS AFB    SUNNY     61  44  53 W13       30.09R
PHILADELPHIA   SUNNY     64  41  42 W14       30.00R
HENDERSON NC   SUNNY     60  45  57 N8        30.19R
GREENSBORO     MOSUNNY   62  41  46 N12       30.20R
ROCKY MOUNT    SUNNY     64  46  52 N12G22    30.17R
$$

VAZ100-221500-
MARINE

STATION/POSITION TIME  TEMP    WIND        PRES    WAVE   SWELL
                       AIR SEA DIR/SP/G            HT/PER HT/PER
                 (UTC) (F)     (DEG/KT/KT) (MB)    (FT/S) (FT/S)
BRANDYWINE LGT   1300   57 62  330/ 12/ 16 1016.6R
CAPE MAY NJ      1300   60 65  320/ 19/ 24 1015.9R
LEWES DE         1300   58 62  310/ 16/ 22 1016.6R
15NM E FENWICK I 1350   57 58              1016.9R   3/ 5
OCEAN-CITY-INLET 1300   57 59  330/ 14/ 17 1017.0R
WACHAPREAGUE VA  1300   62 63  320/  5/ 11 1018.5R
THOMAS POINT MD  1400   59 65  290/ 14/ 16 1019.0R
GOOSES REEF MD   1300   58 65  310/ 16/ 19 1019.3R   0
SOLOMONS ISLAND  1342      67                N/A
BISHOPS HEAD MD  1300   59 61  310/ 16/ 18 1018.0R
PINEY POINT MD   1300          330/ 19/ 21   N/A
CAMBRIDGE MD     1300   58 68  300/ 13/ 17 1018.0R
LEWISETTA VA     1300   60 67              1018.9R
RAPPAHANNOCK LGT 1300          320/ 17/ 19 1019.4R
STINGRAY PT      1300   60 69  320/ 16/ 19 1018.7R   1/ 2
YORK RVR RNG VA  1300   59     340/ 17/ 21 1018.8R
YORKTOWN VA      1300   58 70  330/ 17/ 19 1019.4R
JAMESTOWN VA     1300   58 74  320/ 12/ 16 1018.9R
DOMINION TERM VA 1300   60     330/ 10/ 14 1019.6R
KIPTOPEKE VA     1300      70  330/ 17/ 24   N/A
CHES BAY BRIDGE  1300   59 66  320/ 17/ 20 1019.0R
CAPE HENRY VA    1300   59     320/ 18/ 21 1018.0R
CHESAPEAKE LGHT  1300   59     340/ 20/ 20 1019.3R
WILLOUBY STN VA  1300   60     340/ 13/ 15 1020.2R
CAPE HENRY BUOY  1328      62                N/A     4/ 6
1ST LANDING BUOY 1300      65              1018.9R
CAPE CHARLES BUO 1326      65                N/A     4/ 6   2/12
OFFSHORE WE BUOY 1311      60                N/A     6/ 6   2/13
64NM E OF VA BCH 1350   58 60  330/ 16/ 17 1018.4R   6/ 6   3/ 8
DUCK PIER NC     1300   58 66  340/ 13/ 15 1018.4R
44100 DUCK FRF   1324      60                N/A     6/ 7
44056 DUCK FRF   1311      64                N/A     4/ 7
OREGON INLET NC  1300   61 68  340/ 12/ 17 1019.4R
HATTERAS NC      1300   62 71  340/ 16/ 21 1019.1R
DIAMOND SHLS NC  1350   63 76   10/ 14/ 17 1019.7R   5/ 8   3/ 8
CAPE LOOKOUT NC  1400   63      10/ 13/ 18 1020.3R
$$



USA.gov is the U.S. government's official web portal to all federal, state and local government web resources and services.